WV8BRW Weather Reports


time (UTC)temp
F
wind
direction
speed
knots
gust
knots
rain 1hr
in
rain 24hr
in
rain mn
in
humidity
%
barometer
mb
20260502233744 52 312 0.0 0.0 0.00 0.00 0.00 48 1014.4
20260502233241 52 274 0.9 1.7 0.00 0.00 0.00 47 1014.4
20260502232737 52 13 1.7 1.7 0.00 0.00 0.00 47 1014.1
20260502232234 53 287 0.9 1.7 0.00 0.00 0.00 47 1014.1
20260502231731 53 10 1.7 1.7 0.00 0.00 0.00 47 1014.3
20260502231229 53 8 0.9 1.7 0.00 0.00 0.00 49 1014.1
20260502230727 53 6 0.9 1.7 0.00 0.00 0.00 47 1014.1
20260502230225 53 84 1.7 1.7 0.00 0.00 0.00 47 1014.1
20260502225721 53 81 2.6 2.6 0.00 0.00 0.00 47 1013.8
20260502225218 53 213 1.7 1.7 0.00 0.00 0.00 47 1013.9
20260502224714 53 349 3.5 6.1 0.00 0.00 0.00 45 1013.9
20260502224211 53 77 2.6 2.6 0.00 0.00 0.00 44 1013.8
20260502223709 54 145 2.6 4.3 0.00 0.00 0.00 46 1013.9
20260502223207 54 196 2.6 5.2 0.00 0.00 0.00 46 1013.8
20260502222704 55 179 3.5 5.2 0.00 0.00 0.00 48 1013.9
20260502222201 55 24 0.9 1.7 0.00 0.00 0.00 50 1013.9
20260502221656 55 99 2.6 2.6 0.00 0.00 0.00 46 1013.8
20260502221153 55 314 0.0 0.9 0.00 0.00 0.00 47 1013.8
20260502220649 55 299 0.9 0.9 0.00 0.00 0.00 47 1013.6
20260502220146 55 60 0.9 1.7 0.00 0.00 0.00 45 1013.7
20260502215643 54 17 0.9 0.9 0.00 0.00 0.00 46 1013.8
20260502215140 54 86 2.6 4.3 0.00 0.00 0.00 45 1013.8
20260502214637 55 312 2.6 5.2 0.00 0.00 0.00 44 1013.7
20260502214134 56 298 0.9 0.9 0.00 0.00 0.00 43 1013.6
20260502213631 58 286 1.7 2.6 0.00 0.00 0.00 42 1013.5
20260502213128 57 292 0.9 1.7 0.00 0.00 0.00 42 1013.6
20260502212628 57 229 4.3 6.1 0.00 0.00 0.00 44 1013.7
20260502212125 55 299 1.7 2.6 0.00 0.00 0.00 45 1013.6
20260502211620 55 357 0.9 0.9 0.00 0.00 0.00 45 1013.4
20260502211118 55 336 2.6 4.3 0.00 0.00 0.00 45 1013.7
20260502210615 55 336 0.9 0.9 0.00 0.00 0.00 47 1013.7
20260502210112 55 16 1.7 2.6 0.00 0.00 0.00 46 1013.4
20260502205609 55 242 1.7 2.6 0.00 0.00 0.00 50 1013.6
20260502205106 54 320 0.9 0.9 0.00 0.00 0.00 48 1013.3
20260502204602 54 236 2.6 5.2 0.00 0.00 0.00 46 1013.5
20260502204100 54 90 2.6 2.6 0.00 0.00 0.00 45 1013.5
20260502203557 55 151 3.5 4.3 0.00 0.00 0.00 44 1013.6
20260502203054 55 54 2.6 2.6 0.00 0.00 0.00 45 1013.5
20260502202550 57 218 3.5 4.3 0.00 0.00 0.00 43 1013.5
20260502202048 56 285 5.2 6.1 0.00 0.00 0.00 43 1013.7
20260502201544 56 148 1.7 2.6 0.00 0.00 0.00 43 1013.8
20260502201041 55 137 2.6 2.6 0.00 0.00 0.00 46 1013.8
20260502200536 55 346 0.9 1.7 0.00 0.00 0.00 45 1013.9
20260502200035 55 93 1.7 2.6 0.00 0.00 0.00 44 1014.0
20260502195532 55 272 1.7 1.7 0.00 0.00 0.00 48 1014.0
20260502195028 54 320 0.0 0.0 0.00 0.00 0.00 46 1013.9
20260502194525 54 228 1.7 1.7 0.00 0.00 0.00 47 1013.9
20260502194021 55 21 2.6 2.6 0.00 0.00 0.00 45 1013.9
20260502193518 55 83 3.5 5.2 0.00 0.00 0.00 43 1014.1
20260502193015 56 141 1.7 2.6 0.00 0.00 0.00 45 1013.9
20260502192510 56 324 0.9 0.9 0.00 0.00 0.00 49 1014.2
20260502192008 53 259 1.7 1.7 0.00 0.00 0.00 47 1014.2
20260502191505 53 47 1.7 1.7 0.00 0.00 0.00 48 1014.3
20260502191003 54 64 1.7 1.7 0.00 0.00 0.00 47 1014.4
20260502190500 53 233 2.6 2.6 0.00 0.00 0.00 45 1014.2
20260502185956 54 131 3.5 4.3 0.00 0.00 0.00 46 1014.3
20260502185452 54 328 0.0 0.9 0.00 0.00 0.00 49 1014.2
20260502184949 54 100 6.1 7.0 0.00 0.00 0.00 46 1014.5
20260502184444 56 213 7.0 7.8 0.00 0.00 0.00 45 1014.3
20260502183941 56 304 1.7 1.7 0.00 0.00 0.00 47 1014.5
20260502183437 54 24 1.7 1.7 0.00 0.00 0.00 43 1014.5
20260502182932 54 283 0.9 1.7 0.00 0.00 0.00 46 1014.7
20260502182428 54 16 0.9 1.7 0.00 0.00 0.00 49 1014.5
20260502181924 54 280 3.5 4.3 0.00 0.00 0.00 46 1014.8
20260502181423 54 53 1.7 1.7 0.00 0.00 0.00 45 1014.5
20260502180921 54 69 3.5 5.2 0.00 0.00 0.00 47 1014.5
20260502180418 54 280 3.5 4.3 0.00 0.00 0.00 45 1014.6
20260502170336 53 146 3.5 5.2 0.00 0.00 0.00 49 1015.1
20260502164324 54 50 3.5 6.1 0.00 0.00 0.00 49 1015.0
20260502163820 53 344 0.9 1.7 0.00 0.00 0.00 46 1015.3
20260502163316 53 64 2.6 2.6 0.00 0.00 0.00 48 1015.3
20260502162814 54 14 0.9 1.7 0.00 0.00 0.00 47 1015.1
20260502162311 53 342 0.9 0.9 0.00 0.00 0.00 47 1014.9
20260502161808 55 125 3.5 4.3 0.00 0.00 0.00 46 1015.4
20260502161303 55 256 0.0 0.9 0.00 0.00 0.00 45 1015.5
20260502160802 53 304 1.7 1.7 0.00 0.00 0.00 49 1015.5
20260502160301 53 328 0.0 0.9 0.00 0.00 0.00 50 1015.1
20260502152229 54 238 1.7 2.6 0.00 0.00 0.00 50 1015.6
20260502151727 55 288 2.6 2.6 0.00 0.00 0.00 54 1015.7
20260502151224 53 323 2.6 4.3 0.00 0.00 0.00 51 1015.5
20260502150722 54 220 1.7 1.7 0.00 0.00 0.00 55 1015.6
20260502150218 54 288 1.7 2.6 0.00 0.00 0.00 53 1015.9
20260502130607 43 332 0.0 0.0 0.00 0.00 0.00 99 1015.9
20260502130105 43 334 0.0 0.0 0.00 0.00 0.00 99 1015.8
20260502123550 39 358 0.0 0.0 0.00 0.00 0.00 99 1015.9
20260502123046 39 334 0.0 0.0 0.00 0.00 0.00 99 1015.7
20260502122543 39 307 0.0 0.0 0.00 0.00 0.00 99 1015.7
20260502122040 39 332 0.0 0.0 0.00 0.00 0.00 99 1015.8
20260502121537 38 334 0.0 0.0 0.00 0.00 0.00 99 1015.7
20260502121035 37 335 0.0 0.0 0.00 0.00 0.00 99 1015.9
20260502120531 36 339 0.0 0.0 0.00 0.00 0.00 99 1015.8
20260502115526 36 314 0.0 0.0 0.00 0.00 0.00 99 1015.6
20260502115021 36 299 0.0 0.0 0.00 0.00 0.00 99 1015.8
20260502114518 35 336 0.0 0.0 0.00 0.00 0.00 99 1015.9
20260502114015 35 336 0.0 0.0 0.00 0.00 0.00 99 1015.6
20260502113513 35 336 0.0 0.0 0.00 0.00 0.00 99 1015.6
20260502113012 34 336 0.0 0.0 0.00 0.00 0.00 99 1015.7
20260502112509 34 336 0.0 0.0 0.00 0.00 0.00 99 1015.4
20260502112006 34 336 0.0 0.0 0.00 0.00 0.00 99 1015.5
20260502111503 34 336 0.0 0.0 0.00 0.00 0.00 99 1015.4
20260502111001 34 336 0.0 0.0 0.00 0.00 0.00 99 1015.4
20260502110458 34 337 0.9 0.9 0.00 0.00 0.00 99 1015.4
20260502105955 34 336 0.9 1.7 0.00 0.00 0.00 99 1015.3
20260502105453 34 335 0.0 0.0 0.00 0.00 0.00 99 1015.3
20260502104950 34 334 0.0 0.0 0.00 0.00 0.00 99 1015.5
20260502104447 34 334 0.0 0.0 0.00 0.00 0.00 99 1015.4
20260502103945 34 334 0.0 0.0 0.00 0.00 0.00 99 1015.3
20260502103442 34 334 0.0 0.0 0.00 0.00 0.00 99 1015.6
20260502102939 34 337 0.9 0.9 0.00 0.00 0.00 99 1015.1
20260502102436 34 334 0.9 0.9 0.00 0.00 0.00 99 1015.3
20260502101933 34 329 0.0 0.0 0.00 0.00 0.00 99 1015.0
20260502101431 34 329 0.0 0.0 0.00 0.00 0.00 99 1015.5
20260502100929 34 329 0.0 0.0 0.00 0.00 0.00 99 1015.5
20260502100428 34 329 0.0 0.0 0.00 0.00 0.00 99 1015.9
20260502091402 34 325 0.0 0.0 0.00 0.00 0.00 99 1015.4
20260502090859 34 327 0.0 0.0 0.00 0.00 0.00 99 1015.4
20260502090356 34 323 0.0 0.0 0.00 0.00 0.00 99 1015.8
20260502071251 35 337 0.9 1.7 0.00 0.00 0.00 99 1015.4
20260502070749 36 344 0.9 0.9 0.00 0.00 0.00 99 1015.1
20260502070246 36 340 0.9 0.9 0.00 0.00 0.00 99 1015.4
20260502065745 36 340 0.9 0.9 0.00 0.00 0.00 99 1015.3
20260502065242 36 338 0.9 0.9 0.00 0.00 0.00 99 1015.5
20260502064741 36 337 0.9 1.7 0.00 0.00 0.00 99 1015.7
20260502064238 36 343 1.7 1.7 0.00 0.00 0.00 99 1015.6
20260502063735 36 341 0.9 0.9 0.00 0.00 0.00 99 1015.4
20260502063233 36 338 0.9 1.7 0.00 0.00 0.00 99 1015.5
20260502062730 36 337 0.9 1.7 0.00 0.00 0.00 99 1015.6
20260502062228 36 338 0.9 0.9 0.00 0.00 0.00 99 1015.3
20260502061726 36 330 0.9 0.9 0.00 0.00 0.00 99 1015.5
20260502061223 36 327 0.0 0.0 0.00 0.00 0.00 99 1015.4
20260502060718 37 327 0.0 0.0 0.00 0.00 0.00 99 1015.8
20260502060215 37 330 0.0 0.9 0.00 0.00 0.00 99 1015.8
20260502055713 37 340 0.9 0.9 0.00 0.00 0.00 99 1015.8
20260502055210 37 337 0.9 0.9 0.00 0.00 0.00 99 1015.7
20260502054709 37 344 0.9 0.9 0.00 0.00 0.00 99 1015.6
20260502054206 37 341 1.7 1.7 0.00 0.00 0.00 99 1015.7
20260502053704 37 337 0.9 1.7 0.00 0.00 0.00 99 1015.8
20260502053200 37 335 0.9 0.9 0.00 0.00 0.00 99 1016.0
20260502052659 37 331 0.0 0.9 0.00 0.00 0.00 99 1015.9
20260502052157 37 332 0.0 0.0 0.00 0.00 0.00 99 1015.9
20260502051655 38 332 0.0 0.0 0.00 0.00 0.00 99 1015.9
20260502051152 38 332 0.0 0.0 0.00 0.00 0.00 99 1015.8
20260502050649 38 332 0.0 0.9 0.00 0.00 0.00 99 1015.9
20260502050145 38 332 0.0 0.0 0.00 0.00 0.00 99 1016.0
20260502045642 38 336 0.9 0.9 0.00 0.00 0.00 99 1015.8
20260502045139 39 337 0.9 0.9 0.00 0.00 0.00 99 1015.7
20260502044636 39 339 0.9 0.9 0.00 0.00 0.00 99 1016.0
20260502044132 39 336 0.9 0.9 0.00 0.00 0.00 99 1016.0
20260502043630 39 338 0.9 1.7 0.00 0.00 0.00 99 1016.0
20260502043127 39 343 0.9 1.7 0.00 0.00 0.00 99 1016.0
20260502042626 39 359 2.6 2.6 0.00 0.00 0.00 99 1016.1
20260502042124 39 337 1.7 1.7 0.00 0.00 0.00 99 1016.1
20260502041622 40 338 1.7 1.7 0.00 0.00 0.00 99 1016.1
20260502041119 40 341 1.7 1.7 0.00 0.00 0.00 99 1016.0
20260502040615 40 337 0.9 0.9 0.00 0.00 0.00 99 1016.0
20260502040113 40 338 0.9 0.9 0.00 0.00 0.00 99 1016.1
20260502035609 41 341 1.7 1.7 0.00 0.00 0.00 99 1015.8
20260502035106 41 343 0.9 1.7 0.00 0.00 0.00 98 1016.0
20260502034604 41 336 0.9 0.9 0.00 0.00 0.00 98 1016.0
20260502034102 41 335 0.9 0.9 0.00 0.00 0.00 97 1015.8
20260502033600 41 334 0.9 0.9 0.00 0.00 0.00 97 1015.7
20260502033057 42 335 0.9 0.9 0.00 0.00 0.00 96 1015.7
20260502032552 42 336 0.9 0.9 0.00 0.00 0.00 95 1015.8
20260502032049 42 338 0.9 0.9 0.00 0.00 0.00 95 1015.9
20260502031547 43 341 0.9 1.7 0.00 0.00 0.00 94 1015.7
20260502031044 43 343 1.7 1.7 0.00 0.00 0.00 93 1015.9
20260502030544 43 342 0.9 0.9 0.00 0.00 0.00 93 1015.8
20260502030041 44 342 1.7 1.7 0.00 0.00 0.00 92 1015.6
20260502025538 44 337 0.9 0.9 0.00 0.00 0.00 91 1015.7
20260502025036 44 341 1.7 1.7 0.00 0.00 0.00 90 1015.9
20260502024533 44 329 0.9 0.9 0.00 0.00 0.00 89 1015.7
20260502024032 45 326 0.0 0.0 0.00 0.00 0.00 89 1015.9
20260502023529 45 326 0.0 0.0 0.00 0.00 0.00 88 1016.1
20260502023026 45 327 0.0 0.0 0.00 0.00 0.00 88 1016.1
20260502022523 45 326 0.0 0.0 0.00 0.00 0.00 87 1016.1
20260502022020 45 325 0.0 0.0 0.00 0.00 0.00 86 1016.0
20260502021517 45 325 0.0 0.0 0.00 0.00 0.00 86 1015.6
20260502021014 45 325 0.0 0.0 0.00 0.00 0.00 84 1015.6
20260502020512 45 325 0.0 0.0 0.00 0.00 0.00 84 1015.4
20260502020009 46 326 0.0 0.0 0.00 0.00 0.00 83 1015.5
20260502015507 46 325 0.0 0.9 0.00 0.00 0.00 82 1015.1
20260502015003 46 325 0.0 0.0 0.00 0.00 0.00 80 1015.1
20260502014459 47 325 0.0 0.0 0.00 0.00 0.00 79 1015.0
20260502013956 48 324 0.0 0.0 0.00 0.00 0.00 76 1014.8
20260502013452 49 334 0.9 0.9 0.00 0.00 0.00 71 1014.8
20260502012948 49 339 0.9 0.9 0.00 0.00 0.00 71 1014.7
20260502012446 49 345 0.9 0.9 0.00 0.00 0.00 71 1014.6
20260502011944 49 7 0.9 1.7 0.00 0.00 0.00 70 1014.5
20260502011439 49 304 0.9 0.9 0.00 0.00 0.00 70 1014.6
20260502010936 50 343 0.0 0.0 0.00 0.00 0.00 69 1014.3
20260502010433 50 320 2.6 2.6 0.00 0.00 0.00 69 1014.4
20260502005929 50 347 1.7 1.7 0.00 0.00 0.00 69 1014.1
20260502005427 50 348 0.9 1.7 0.00 0.00 0.00 69 1014.1
20260502004925 51 314 2.6 2.6 0.00 0.00 0.00 69 1014.2
20260502004421 51 185 3.5 5.2 0.00 0.00 0.00 69 1013.9
20260502003918 51 39 2.6 4.3 0.00 0.00 0.00 69 1013.5
20260502003416 52 299 2.6 2.6 0.00 0.00 0.00 69 1013.5
20260502002911 52 29 2.6 5.2 0.00 0.00 0.00 68 1013.4
20260502002409 53 195 4.3 6.1 0.00 0.00 0.00 70 1013.3
20260502001906 53 341 1.7 2.6 0.00 0.00 0.00 70 1013.1
20260502001404 53 231 3.5 5.2 0.00 0.00 0.00 70 1013.2
20260502000901 53 333 0.0 0.9 0.00 0.00 0.00 70 1013.1
20260502000402 53 353 1.7 2.6 0.00 0.00 0.00 71 1013.1
20260501235855 54 346 2.6 2.6 0.00 0.00 0.00 70 1012.7
20260501235351 54 315 0.0 0.9 0.00 0.00 0.00 69 1012.7
20260501234846 54 353 4.3 6.1 0.00 0.00 0.00 68 1012.7
20260501234344 54 325 4.3 7.0 0.00 0.00 0.00 67 1012.4